Coleville, CA

2:45 AM PDT on August 29, 2016 (GMT -0700)
MCMWTC BRIDGEPORT, CA

Weather History for KBAN - February, 2014

Change the Weather History Date:

Friday, February 7, 2014

  Actual Average (KTVL) Record (KTVL)
Temperature  
Mean Temperature 34 °F 30 °F  
Max Temperature 37 °F 43 °F 60 °F (1996)
Min Temperature 30 °F 17 °F -29 °F (1989)
Degree Days  
Heating Degree Days 32 35  
Month to date heating degree days 245  
Since 1 July heating degree days 4527  
Cooling Degree Days 0 0  
Month to date cooling degree days 0  
Year to date cooling degree days 0  
Moisture  
Dew Point 22 °F    
Average Humidity 63    
Maximum Humidity 82    
Minimum Humidity 40    
Precipitation  
Precipitation 0.06 in - 1.57 in (1983)
Month to date precipitation  
Year to date precipitation  
Sea Level Pressure  
Sea Level Pressure 29.88 in    
Wind  
Wind Speed 17 mph (WSW)    
Max Wind Speed 29 mph    
Max Gust Speed 43 mph    
Visibility 5 miles    
Events Rain , Snow    
T = Trace of Precipitation, MM = Missing Value Source: NWS Daily Summary

Daily Weather History Graph

Daily Weather History Graph

Search for Another Location

Airport or City:

Trip Planner

Search our weather history database for the weather conditions in past years. The results will help you decide how hot, cold, wet, or windy it might be!

Date:

Astronomy

Feb. 07, 2014 Rise Set
Actual Time 6:57 AM PST 5:27 PM PST
Civil Twilight 6:29 AM PST 5:55 PM PST
Nautical Twilight 5:58 AM PST 6:26 PM PST
Astronomical Twilight 5:27 AM PST 6:57 PM PST
Moon 11:43 AM PST (2/7) 1:17 AM PST (2/7)
Length of Visible Light 11h 25m
Length of Day
10h 30m
First Quarter, 60% of the Moon is Illuminated
Feb 7
First Quarter
Feb 14
Full
Feb 22
Last Quarter
Mar 1
New
Mar 8
First Quarter

Hourly Weather History & Observations

Time (PST) Temp. Windchill Dew Point Humidity Pressure Visibility Wind Dir Wind Speed Gust Speed Precip Events Conditions
12:52 AM 30.9 °F 20.2 °F 15.1 °F 52% 29.82 in 10.0 mi WSW 15.0 mph 23.0 mph N/A   Clear
1:52 AM 32.0 °F 23.0 °F 10.9 °F 42% 29.81 in 10.0 mi SW 11.5 mph 20.7 mph N/A   Clear
2:52 AM 30.0 °F 21.7 °F 10.0 °F 43% 29.82 in 10.0 mi WSW 9.2 mph - N/A   Clear
3:52 AM 30.9 °F 18.7 °F 10.0 °F 42% 29.84 in 10.0 mi WSW 19.6 mph 26.5 mph N/A   Clear
4:52 AM 30.9 °F 19.1 °F 15.1 °F 52% 29.86 in 10.0 mi SW 18.4 mph 28.8 mph N/A   Scattered Clouds
5:12 AM 30.9 °F 21.2 °F 14.0 °F 50% 29.87 in 10.0 mi SW 12.7 mph 23.0 mph N/A   Mostly Cloudy
5:31 AM 30.9 °F 20.7 °F 15.1 °F 52% 29.89 in 10.0 mi WSW 13.8 mph 27.6 mph N/A   Mostly Cloudy
5:52 AM 30.9 °F 22.8 °F 14.0 °F 50% 29.88 in 10.0 mi West 9.2 mph - N/A   Partly Cloudy
6:52 AM 30.9 °F 19.8 °F 14.0 °F 50% 29.86 in 10.0 mi SW 16.1 mph 25.3 mph N/A   Clear
7:52 AM 33.1 °F 23.9 °F 10.9 °F 40% 29.89 in 10.0 mi WSW 12.7 mph 24.2 mph N/A   Mostly Cloudy
8:50 AM 30.2 °F 18.5 °F 19.4 °F 64% 29.93 in 2.0 mi WSW 17.3 mph 31.1 mph 0.00 in Snow Light Snow
8:52 AM 30.9 °F 19.4 °F 19.0 °F 61% 29.93 in 1.8 mi SW 17.3 mph 31.1 mph 0.00 in Snow Light Snow
9:05 AM 32.0 °F 24.2 °F 19.9 °F 61% 29.92 in 3.0 mi SW 9.2 mph 23.0 mph 0.00 in Snow Light Snow
9:29 AM 34.0 °F 25.5 °F 18.0 °F 52% 29.91 in 10.0 mi SSW 11.5 mph 26.5 mph 0.00 in   Overcast
9:52 AM 35.1 °F 23.5 °F 17.1 °F 48% 29.89 in 10.0 mi SW 21.9 mph 34.5 mph 0.00 in   Overcast
10:52 AM 35.1 °F 23.3 °F 19.9 °F 54% 29.89 in 5.0 mi WSW 23.0 mph 33.4 mph N/A   Haze
11:02 AM 35.1 °F 22.5 °F 21.0 °F 57% 29.90 in 2.5 mi SW 26.5 mph 39.1 mph 0.00 in Snow Light Snow
11:42 AM 34.0 °F 25.5 °F 21.9 °F 61% 29.90 in 4.0 mi WSW 11.5 mph 25.3 mph 0.00 in Snow Light Snow
11:52 AM 34.0 °F 21.3 °F 21.9 °F 61% 29.89 in 8.0 mi SW 25.3 mph 39.1 mph 0.00 in   Overcast
12:52 PM 34.0 °F 22.1 °F 21.0 °F 59% 29.90 in 6.0 mi SW 21.9 mph 34.5 mph 0.00 in   Haze
1:52 PM 36.0 °F 23.7 °F 21.0 °F 55% 29.84 in 10.0 mi SW 26.5 mph 40.3 mph 0.00 in   Overcast
2:52 PM 34.0 °F 22.1 °F 23.0 °F 64% 29.88 in 4.0 mi SW 21.9 mph 29.9 mph 0.00 in Snow Light Snow
3:00 PM 34.0 °F 22.4 °F 24.1 °F 67% 29.88 in 2.5 mi SW 20.7 mph 34.5 mph 0.00 in Snow Light Snow
3:08 PM 33.1 °F 22.2 °F 24.1 °F 70% 29.89 in 1.5 mi SW 17.3 mph 34.5 mph 0.00 in Snow Light Snow
3:52 PM 33.1 °F 22.2 °F 25.0 °F 72% 29.90 in 1.0 mi WSW 17.3 mph 26.5 mph 0.00 in Snow Light Snow
4:19 PM 33.1 °F 20.9 °F 26.1 °F 75% 29.89 in 0.8 mi WSW 21.9 mph 33.4 mph 0.00 in Snow Light Snow
4:36 PM 33.1 °F 21.9 °F 26.1 °F 75% 29.88 in 1.2 mi WSW 18.4 mph 26.5 mph 0.00 in Snow Light Snow
4:52 PM 33.1 °F 22.2 °F 26.1 °F 75% 29.89 in 1.5 mi WSW 17.3 mph 25.3 mph 0.00 in Snow Light Snow
5:08 PM 33.1 °F 20.3 °F 26.1 °F 75% 29.88 in 0.5 mi WSW 24.2 mph 29.9 mph 0.00 in Snow Snow
5:21 PM 34.0 °F 21.8 °F 25.0 °F 70% 29.88 in 1.2 mi WSW 23.0 mph 31.1 mph 0.00 in Snow Light Snow
5:33 PM 33.1 °F 21.2 °F 26.1 °F 75% 29.87 in 1.0 mi WSW 20.7 mph 29.9 mph 0.00 in Snow Light Snow
5:52 PM 34.0 °F 20.8 °F 25.0 °F 70% 29.86 in 1.2 mi WSW 27.6 mph 38.0 mph 0.00 in Snow Light Snow
6:52 PM 35.1 °F 22.5 °F 27.0 °F 72% 29.86 in 1.2 mi WSW 26.5 mph 39.1 mph 0.00 in Snow Light Snow
7:13 PM 34.0 °F 21.0 °F 28.0 °F 79% 29.88 in 0.5 mi WSW 26.5 mph 41.4 mph 0.00 in Snow Snow
7:22 PM 34.0 °F 20.5 °F 28.9 °F 82% 29.88 in 0.5 mi WSW 28.8 mph 42.6 mph 0.00 in Snow Snow
7:39 PM 35.1 °F 23.3 °F 28.9 °F 78% 29.86 in 1.8 mi WSW 23.0 mph 33.4 mph 0.00 in Snow Light Snow
7:47 PM 36.0 °F 24.2 °F 28.0 °F 73% 29.84 in 3.0 mi WSW 24.2 mph 38.0 mph 0.01 in Snow Light Snow
8:52 PM 37.9 °F 27.6 °F 28.9 °F 70% 29.87 in 5.0 mi West 20.7 mph 34.5 mph 0.02 in Snow Light Snow
9:52 PM 37.0 °F 27.0 °F 28.9 °F 73% 29.89 in 8.0 mi WSW 18.4 mph 28.8 mph 0.00 in Snow Light Snow
10:52 PM 36.0 °F 25.3 °F 28.9 °F 76% 29.92 in 5.0 mi WSW 19.6 mph 32.2 mph 0.03 in Snow Light Snow
11:52 PM 37.9 °F 27.9 °F 28.9 °F 70% 29.95 in 8.0 mi WSW 19.6 mph 40.3 mph 0.00 in Rain Light Rain